Wheeler AAF, HI

5:38 AM HST on September 23, 2017 (GMT -1000)
Wheeler Army Air Field

Weather History for PHHI - July, 2013

Change the Weather History Date:

Wednesday, July 24, 2013

  Actual Average Record
Temperature  
Mean Temperature 75 °F -  
Max Temperature 83 °F 80 °F 84 °F (1996)
Min Temperature 67 °F 67 °F 64 °F (2011)
Cooling Degree Days 10    
Growing Degree Days 25 (Base 50)    
Moisture  
Dew Point 66 °F    
Average Humidity 73    
Maximum Humidity 92    
Minimum Humidity 53    
Precipitation  
Precipitation 0.00 in - - ()
Sea Level Pressure  
Sea Level Pressure 29.95 in    
Wind  
Wind Speed 6 mph (NE)    
Max Wind Speed 15 mph    
Max Gust Speed 20 mph    
Visibility 10 miles    
Events      
Averages and records for this station are not official NWS values.
T = Trace of Precipitation, MM = Missing Value Source: NWS Daily Summary

Daily Weather History Graph

Daily Weather History Graph

Search for Another Location

Airport or City:

Trip Planner

Search our weather history database for the weather conditions in past years. The results will help you decide how hot, cold, wet, or windy it might be!

Date:

Astronomy

Jul. 24, 2013 Rise Set
Actual Time 6:02 AM HST 7:14 PM HST
Civil Twilight 5:38 AM HST 7:38 PM HST
Nautical Twilight 5:09 AM HST 8:07 PM HST
Astronomical Twilight 4:40 AM HST 8:36 PM HST
Moon 8:57 PM HST (7/24) 8:10 AM HST (7/24)
Length of Visible Light 14h 00m
Length of Day
13h 12m
Waning Gibbous, 93% of the Moon is Illuminated
Jul 24
Waning Gibbous
Jul 29
Last Quarter
Aug 6
New
Aug 14
First Quarter
Aug 20
Full

Hourly Weather History & Observations

Time (HST) Temp. Heat Index Dew Point Humidity Pressure Visibility Wind Dir Wind Speed Gust Speed Precip Events Conditions
12:55 AM 68.4 °F - 65.3 °F 90% 29.99 in 10.0 mi WNW 3.5 mph - N/A   Clear
1:55 AM 67.3 °F - 64.8 °F 92% 29.96 in 10.0 mi West 3.5 mph - N/A   Clear
2:55 AM 67.8 °F - 65.5 °F 92% 29.95 in 10.0 mi WNW 5.8 mph - N/A   Clear
3:55 AM 68.2 °F - 65.7 °F 92% 29.95 in 10.0 mi WNW 4.6 mph - N/A   Clear
4:55 AM 67.6 °F - 65.3 °F 92% 29.96 in 10.0 mi WNW 4.6 mph - N/A   Clear
5:55 AM 68.0 °F - 65.5 °F 92% 29.96 in 10.0 mi NW 3.5 mph - N/A   Clear
6:55 AM 69.6 °F - 67.3 °F 92% 29.97 in 10.0 mi West 3.5 mph - N/A   Clear
7:55 AM 75.7 °F - 69.3 °F 80% 29.98 in 10.0 mi Calm Calm - N/A   Clear
8:55 AM 78.8 °F - 67.3 °F 68% 29.97 in 10.0 mi East 4.6 mph - N/A   Scattered Clouds
9:55 AM 80.8 °F 83.1 °F 66.7 °F 62% 29.97 in 10.0 mi East 11.5 mph 17.3 mph N/A   Partly Cloudy
10:55 AM 81.3 °F 83.2 °F 65.5 °F 58% 29.96 in 10.0 mi East 9.2 mph - N/A   Clear
11:55 AM 82.8 °F 84.2 °F 63.9 °F 53% 29.96 in 10.0 mi ENE 15.0 mph - N/A   Clear
12:55 PM 83.1 °F 85.2 °F 66.0 °F 56% 29.94 in 10.0 mi ENE 15.0 mph - N/A   Scattered Clouds
1:55 PM 82.4 °F 84.8 °F 66.7 °F 59% 29.93 in 10.0 mi East 13.8 mph - N/A   Partly Cloudy
2:55 PM 82.6 °F 85.1 °F 66.9 °F 59% 29.92 in 10.0 mi ENE 12.7 mph 19.6 mph N/A   Clear
3:55 PM 81.5 °F 83.9 °F 66.9 °F 61% 29.91 in 10.0 mi ENE 12.7 mph - N/A   Partly Cloudy
4:55 PM 79.5 °F - 66.6 °F 64% 29.90 in 10.0 mi East 12.7 mph - N/A   Clear
5:55 PM 79.0 °F - 65.5 °F 63% 29.91 in 10.0 mi ENE 12.7 mph - N/A   Clear
6:55 PM 75.9 °F - 66.2 °F 72% 29.92 in 10.0 mi East 5.8 mph - N/A   Partly Cloudy
7:55 PM 75.4 °F - 66.0 °F 73% 29.93 in 10.0 mi ENE 5.8 mph - N/A   Scattered Clouds
8:55 PM 75.0 °F - 65.7 °F 73% 29.95 in 10.0 mi East 4.6 mph - N/A   Mostly Cloudy
9:55 PM 74.1 °F - 63.9 °F 70% 29.96 in 10.0 mi ENE 5.8 mph - N/A   Clear
10:55 PM 73.8 °F - 64.4 °F 72% 29.96 in 10.0 mi Calm Calm - N/A   Scattered Clouds
11:55 PM 70.5 °F - 63.5 °F 78% 29.95 in 10.0 mi West 3.5 mph - N/A   Scattered Clouds